Location: Ch�risy
(50.2331°N, 2.9131°E)
Time: 19:59:44
(UTC+00:00)

USA 281 - Pass Details

Date: 17 January 2021
Orbit: 1072 x 1086 km, 106.0° (Epoch: 26 February)

Event Time Altitude Azimuth Distance (km) Brightness Sun altitude
Exits shadow 18:41:51 29° 40° (NE) 1,890 4.1 -22.5°
Drops below altitude 10° 18:47:08 10° 347° (NNW) 2,942 5.6 -23.3°
Sets 18:49:59 0° 336° (NNW) 3,901 6.4 -23.8°
